MANDRAKE 2 ABLE (48907 NORAD) Tracking and Keplerian Element Data

This shows tracking and keplerian element data for the satellite.

Feedback or suggestion? Click here.




ElementValue
Catalog48907
NameMANDRAKE 2 ABLE
Epoch Orbit1383
Epoch Day268.32516148
Epoch Year2021
RAAN35.7786
Inclination97.5219
Eccentricity0.0009664
Argument of Perigee298.7183
Mean Anonmoly61.3076
Mean Motion15.12667344
Decay Rate1.04E-05
L11 48907U 21059AE 21268.32516148 .00001040 00000-0 63139-4 0 9995
L22 48907 97.5219 35.7786 0009664 298.7183 61.3076 15.12667344 13839

Live tracking and technical data element details for MANDRAKE 2 ABLE (NORAD 48907). MANDRAKE 2 ABLE can be tracked NOW for your location showing map with azimuth and elevation plus other details from your city location.

Track the satellite on the map from your city or location and see movement details for azimuth, elevation, latitude, longitude, range, height, and movement on the map or in text.







IsCatalogInMostPopularTable: catalog: 48907, numindb: 13
Update: records affected: 1



GetName: 48907 MANDRAKE 2 ABLE

Hit Count: updated at: Sun, 26 Sep 2021 16:25:05 GMT